Location: Little Chesterford
(52.0500°N, 0.1833°E)
Time: 18:51:48
(UTC+00:00)

Resurs 1-3 - Pass Details

Date: 26 September 2023
Orbit: 624 x 626 km, 97.8° (Epoch: 07 December)

Event Time Altitude Azimuth Distance (km) Brightness Sun altitude
Exits shadow 19:19:52 - 164° (SSE) 2,273 6.1 -14.6°
Reaches altitude 10° 19:20:33 10° 164° (SSE) 1,995 5.8 -14.7°
Maximum altitude 19:24:54 88° 83° (E) 634 3.5 -15.4°
Drops below altitude 10° 19:29:17 10° 346° (NNW) 2,013 6.6 -16.0°
Sets 19:31:30 0° 347° (NNW) 2,925 7.5 -16.3°
